�N����,����,�g�[���i�L�b�`���j���x,�g�[�����x,��g�[���i���ʏ��j���x,����
 2002/11/01, 0:00,16.7,60,15.6,15.6
 2002/11/01, 0:15,16.5,60,15.5,15.5
 2002/11/01, 0:30,16.6,60,15.6,15.6
 2002/11/01, 0:45,16.5,60,15.4,15.6
 2002/11/01, 1:00,16.4,61,15.4,15.6
 2002/11/01, 1:15,16.4,61,15.4,15.6
 2002/11/01, 1:30,16.4,62,15.4,15.7
 2002/11/01, 1:45,16.4,62,15.3,15.7
 2002/11/01, 2:00,16.4,63,15.3,15.7
 2002/11/01, 2:15,16.2,63,15.1,15.7
 2002/11/01, 2:30,16.2,63,15,15.8
 2002/11/01, 2:45,16.2,64,14.9,15.8
 2002/11/01, 3:00,16.2,64,14.9,15.8
 2002/11/01, 3:15,16.1,64,14.9,15.8
 2002/11/01, 3:30,16.2,64,14.8,15.9
 2002/11/01, 3:45,16.2,64,14.8,15.9
 2002/11/01, 4:00,16.1,64,14.8,15.9
 2002/11/01, 4:15,16.1,64,14.8,15.9
 2002/11/01, 4:30,16.2,65,14.8,15.9
 2002/11/01, 4:45,16.2,65,14.8,15.9
 2002/11/01, 5:00,16.2,65,14.7,16
 2002/11/01, 5:15,16.1,64,14.7,15.1
 2002/11/01, 5:30,16.3,64,14.7,15.1
 2002/11/01, 5:45,16.5,64,14.8,15.1
 2002/11/01, 6:00,16.6,63,14.7,15.2
 2002/11/01, 6:15,16.7,63,14.8,15.2
 2002/11/01, 6:30,16.6,63,15,15.2
 2002/11/01, 6:45,16.7,64,14.9,15.2
 2002/11/01, 7:00,16.9,64,14.9,15.3
 2002/11/01, 7:15,17,64,14.9,15.3
 2002/11/01, 7:30,16.9,63,14.9,15.3
 2002/11/01, 7:45,16.8,64,15,15.3
 2002/11/01, 8:00,17,64,14.9,15.4
 2002/11/01, 8:15,17,64,15.4,15.4
 2002/11/01, 8:30,17.2,64,15.2,15.4
 2002/11/01, 8:45,17.1,63,15.3,15.5
 2002/11/01, 9:00,16.9,66,15.8,15.5
 2002/11/01, 9:15,16.8,67,15.6,15.1
 2002/11/01, 9:30,16.7,66,15.4,15.1
 2002/11/01, 9:45,16.8,66,15.4,15.1
 2002/11/01,10:00,16.7,70,15.6,15.1
 2002/11/01,10:15,16.6,71,15.5,15.1
 2002/11/01,10:30,16.7,70,15.8,15.2
 2002/11/01,10:45,17,71,15.8,15.2
 2002/11/01,11:00,17,72,16.1,15.2
 2002/11/01,11:15,16.8,72,16,15.3
 2002/11/01,11:30,16.8,70,16.2,15.3
 2002/11/01,11:45,16.8,70,16.3,15.3
 2002/11/01,12:00,16.9,69,16.6,15.3
 2002/11/01,12:15,16.8,70,16.7,15.4
 2002/11/01,12:30,16.9,70,17,15.4
 2002/11/01,12:45,17,70,17.3,15.4
 2002/11/01,13:00,17,70,17.7,15.4
 2002/11/01,13:15,17.2,69,17.9,15.4
 2002/11/01,13:30,17.3,67,18.2,15.5
 2002/11/01,13:45,17.4,69,20.6,15.5
 2002/11/01,14:00,17.7,69,20.2,15.5
 2002/11/01,14:15,17.8,69,19.4,15.5
 2002/11/01,14:30,17.8,70,19.2,15.6
 2002/11/01,14:45,18,70,18.9,15.6
 2002/11/01,15:00,18.1,70,18.9,15.6
 2002/11/01,15:15,18.7,70,19.2,15.6
 2002/11/01,15:30,18.9,70,18.8,15.7
 2002/11/01,15:45,18.8,69,18.6,15.8
 2002/11/01,16:00,18.7,69,18.3,15.8
 2002/11/01,16:15,18.7,69,18,15.8
 2002/11/01,16:30,18.7,69,17.8,15.9
 2002/11/01,16:45,18.7,68,17.7,15.9
 2002/11/01,17:00,18.7,67,17.4,15.9
 2002/11/01,17:15,18.7,66,17.3,16
 2002/11/01,17:30,18.8,65,17.2,16
 2002/11/01,17:45,19,64,17,16
 2002/11/01,18:00,19,64,17,16.1
 2002/11/01,18:15,19.1,63,16.9,16.1
 2002/11/01,18:30,19.3,66,16.9,16.1
 2002/11/01,18:45,19.2,64,16.7,16.2
 2002/11/01,19:00,19.2,63,16.9,16.2
 2002/11/01,19:15,19.2,63,16.8,16.2
 2002/11/01,19:30,19.2,63,16.8,16.3
 2002/11/01,19:45,19.3,63,16.6,16.3
 2002/11/01,20:00,19,64,16.8,16.3
 2002/11/01,20:15,18.9,66,16.8,16.4
 2002/11/01,20:30,18.7,65,17.5,16.4
 2002/11/01,20:45,18.7,64,17.8,16.4
 2002/11/01,21:00,18.7,65,17.5,16.5
 2002/11/01,21:15,18.5,63,18,16.5
 2002/11/01,21:30,18.2,64,17.3,16.5
 2002/11/01,21:45,18.2,61,16.7,16.6
 2002/11/01,22:00,18,61,16.2,16.6
 2002/11/01,22:15,17.8,60,16.2,16.6
 2002/11/01,22:30,17.7,60,16.3,16.6
 2002/11/01,22:45,17.6,60,16.4,16.7
 2002/11/01,23:00,17.5,60,16.5,16.7
 2002/11/01,23:15,17.4,59,16.3,16.7
 2002/11/01,23:30,17.3,59,15.9,16.7
 2002/11/01,23:45,17,58,16,16.8
 2002/11/02, 0:00,16.9,61,15.4,16.8
 2002/11/02, 0:15,16.7,60,15.1,16
 2002/11/02, 0:30,16.5,60,14.7,16
 2002/11/02, 0:45,16.4,60,14.4,16
 2002/11/02, 1:00,16.2,60,14.4,16
 2002/11/02, 1:15,16.1,60,14.2,16.1
 2002/11/02, 1:30,16,60,14.1,16.1
 2002/11/02, 1:45,15.8,60,13.8,16.1
 2002/11/02, 2:00,15.7,60,13.6,16.1
 2002/11/02, 2:15,15.7,61,13.5,16.1
 2002/11/02, 2:30,15.6,61,13.3,16.1
 2002/11/02, 2:45,15.4,61,13.2,16.1
 2002/11/02, 3:00,15.4,61,13.1,16.1
 2002/11/02, 3:15,15.2,61,12.9,16.1
 2002/11/02, 3:30,15.2,61,12.8,16.1
 2002/11/02, 3:45,15,61,12.7,16.1
 2002/11/02, 4:00,15,61,12.5,16.1
 2002/11/02, 4:15,14.9,61,12.4,16.1
 2002/11/02, 4:30,14.7,61,12.3,16.1
 2002/11/02, 4:45,14.6,61,12.1,16.1
 2002/11/02, 5:00,14.5,61,12.1,16.1
 2002/11/02, 5:15,14.5,61,12,16.1
 2002/11/02, 5:30,14.5,61,12,16
 2002/11/02, 5:45,14.4,61,11.8,16
 2002/11/02, 6:00,14.3,61,11.7,16
 2002/11/02, 6:15,14.1,61,11.7,16
 2002/11/02, 6:30,14.2,61,11.5,14.3
 2002/11/02, 6:45,14,61,11.5,14.4
 2002/11/02, 7:00,14,61,11.7,14.3
 2002/11/02, 7:15,14.5,61,11.8,14.4
 2002/11/02, 7:30,15.1,60,12.2,14.4
 2002/11/02, 7:45,15.6,59,12.2,14.4
 2002/11/02, 8:00,15.5,58,13.1,14.4
 2002/11/02, 8:15,15.6,58,13,14.4
 2002/11/02, 8:30,15.6,56,12.8,14.3
 2002/11/02, 8:45,15.3,52,13,14.3
 2002/11/02, 9:00,15.5,49,13.3,14.3
 2002/11/02, 9:15,15.8,50,13.4,14.3
 2002/11/02, 9:30,15.4,46,13.9,14.3
 2002/11/02, 9:45,14.7,47,14.1,14.3
 2002/11/02,10:00,14.8,47,14.1,14.4
 2002/11/02,10:15,15.1,50,14.1,14.4
 2002/11/02,10:30,15.1,50,14.2,14.4
 2002/11/02,10:45,14.9,51,14.3,14.4
 2002/11/02,11:00,14.9,49,14.3,14.4
 2002/11/02,11:15,14.8,48,14.6,14.5
 2002/11/02,11:30,14.4,49,14.9,14.5
 2002/11/02,11:45,14.4,49,14.9,14.5
 2002/11/02,12:00,14.8,49,15,14.5
 2002/11/02,12:15,14.8,50,15.3,14.6
 2002/11/02,12:30,14.8,48,15.3,14.6
 2002/11/02,12:45,15.1,48,16,14.6
 2002/11/02,13:00,15.3,48,16.3,14.6
 2002/11/02,13:15,15.5,48,16.4,14.6
 2002/11/02,13:30,15.5,48,16.2,14.6
 2002/11/02,13:45,15.7,48,16.3,14.7
 2002/11/02,14:00,15.7,48,16.4,14.7
 2002/11/02,14:15,15.9,48,16.4,14.7
 2002/11/02,14:30,15.6,46,16.3,14.7
 2002/11/02,14:45,15.7,47,16.1,14.8
 2002/11/02,15:00,15.8,47,16.3,14.8
 2002/11/02,15:15,15.9,47,16.3,14.8
 2002/11/02,15:30,15.8,49,15.9,14.8
 2002/11/02,15:45,15.5,50,15.3,14.9
 2002/11/02,16:00,15.5,51,15.2,14.9
 2002/11/02,16:15,15.3,54,14.6,14.9
 2002/11/02,16:30,15.5,54,14.4,15
 2002/11/02,16:45,15.7,53,13.8,15
 2002/11/02,17:00,15.8,53,13.2,14.3
 2002/11/02,17:15,15.8,52,13.1,14.4
 2002/11/02,17:30,15.6,53,13.1,14.4
 2002/11/02,17:45,15.6,53,14.5,14.4
 2002/11/02,18:00,15.7,53,14.4,14.4
 2002/11/02,18:15,15.8,53,13.9,14.4
 2002/11/02,18:30,15.8,53,14,14.5
 2002/11/02,18:45,15.9,54,14.6,14.5
 2002/11/02,19:00,16.2,55,14.5,14.5
 2002/11/02,19:15,16.1,54,14.4,14.5
 2002/11/02,19:30,16,53,14.1,14.6
 2002/11/02,19:45,16,53,13.8,14.6
 2002/11/02,20:00,15.9,52,13.7,14.6
 2002/11/02,20:15,15.5,52,12.7,14.7
 2002/11/02,20:30,15.3,50,12.4,14.7
 2002/11/02,20:45,15.3,51,13,14.7
 2002/11/02,21:00,15.3,51,13.5,14.7
 2002/11/02,21:15,15.2,52,13.4,14.7
 2002/11/02,21:30,15.1,55,13.2,14.8
 2002/11/02,21:45,15,55,12.6,14.8
 2002/11/02,22:00,14.8,54,12.2,14.8
 2002/11/02,22:15,14.7,54,12.1,14.8
 2002/11/02,22:30,14.5,54,12,14.8
 2002/11/02,22:45,14.5,55,12.4,14.8
 2002/11/02,23:00,14.5,55,12.1,14.8
 2002/11/02,23:15,14.3,55,11.6,13.9
 2002/11/02,23:30,14.2,55,11.3,13.9
 2002/11/02,23:45,14,55,11.3,13.9
 2002/11/03, 0:00,13.9,54,11,13.9
 2002/11/03, 0:15,13.7,54,10.9,13.9
 2002/11/03, 0:30,13.7,54,11,13.9
 2002/11/03, 0:45,13.6,54,11,13.9
 2002/11/03, 1:00,13.5,54,11,14
 2002/11/03, 1:15,13.4,54,11,14
 2002/11/03, 1:30,13.4,54,11.2,14
 2002/11/03, 1:45,13.4,55,10.9,14
 2002/11/03, 2:00,13.2,55,10.7,14
 2002/11/03, 2:15,13.2,55,10.5,14
 2002/11/03, 2:30,13.1,54,10.1,14
 2002/11/03, 2:45,13,53,10.1,14
 2002/11/03, 3:00,12.9,53,10.1,14
 2002/11/03, 3:15,12.8,53,10,14
 2002/11/03, 3:30,12.8,54,10,13.9
 2002/11/03, 3:45,12.7,54,9.9,13.9
 2002/11/03, 4:00,12.7,54,9.8,13.9
 2002/11/03, 4:15,12.7,54,10.1,13.9
 2002/11/03, 4:30,12.6,55,10,13.9
 2002/11/03, 4:45,12.5,55,9.9,13.9
 2002/11/03, 5:00,12.5,55,9.9,13.9
 2002/11/03, 5:15,12.4,55,10.1,13.8
 2002/11/03, 5:30,12.5,56,10.1,12.9
 2002/11/03, 5:45,12.5,55,10,12.4
 2002/11/03, 6:00,12.3,56,9.8,12.4
 2002/11/03, 6:15,12.4,56,9.8,12.4
 2002/11/03, 6:30,12.3,56,9.5,12.4
 2002/11/03, 6:45,12.1,56,9.6,12.4
 2002/11/03, 7:00,12.2,56,9.6,12.4
 2002/11/03, 7:15,12.4,55,9.6,12.4
 2002/11/03, 7:30,12.5,55,9.8,12.4
 2002/11/03, 7:45,12.7,55,10,12.4
 2002/11/03, 8:00,13,54,10.9,12.1
 2002/11/03, 8:15,13.4,56,11.2,12.1
 2002/11/03, 8:30,13.9,58,11.5,12.1
 2002/11/03, 8:45,14,56,11.7,12.1
 2002/11/03, 9:00,14.1,54,12,12.1
 2002/11/03, 9:15,14.2,54,11.8,12.4
 2002/11/03, 9:30,14.3,53,12,12.4
 2002/11/03, 9:45,14.3,52,12.1,12.4
 2002/11/03,10:00,14.4,52,12.2,12.4
 2002/11/03,10:15,14.6,52,12.5,12.5
 2002/11/03,10:30,14.8,51,12.7,12.5
 2002/11/03,10:45,15.1,52,13,12.5
 2002/11/03,11:00,15.2,52,13.5,12.5
 2002/11/03,11:15,15,51,13.4,12.6
 2002/11/03,11:30,15,51,13.5,12.6
 2002/11/03,11:45,15,50,14,12.7
 2002/11/03,12:00,15,49,14.3,12.7
 2002/11/03,12:15,15.1,49,14.3,12.7
 2002/11/03,12:30,15.1,49,14.6,12.7
 2002/11/03,12:45,14.8,50,14.2,12.8
 2002/11/03,13:00,15.1,49,14.9,12.8
 2002/11/03,13:15,15.3,48,15.2,12.8
 2002/11/03,13:30,15.6,48,15.4,12.9
 2002/11/03,13:45,15.8,48,15.6,12.9
 2002/11/03,14:00,15.6,48,15.4,12.9
 2002/11/03,14:15,15.8,49,15.3,12.9
 2002/11/03,14:30,15.8,49,15.5,13
 2002/11/03,14:45,15.8,49,15.4,13
 2002/11/03,15:00,15.7,49,15.7,13
 2002/11/03,15:15,15.8,49,15.4,13.1
 2002/11/03,15:30,15.8,49,15,13.1
 2002/11/03,15:45,15.6,50,15,13.2
 2002/11/03,16:00,15.5,50,14.9,13.2
 2002/11/03,16:15,15.4,49,14.7,13.3
 2002/11/03,16:30,15.3,50,14.4,13.3
 2002/11/03,16:45,15.3,50,14.4,13.3
 2002/11/03,17:00,15.2,50,14,13.4
 2002/11/03,17:15,15.1,50,13.6,13.4
 2002/11/03,17:30,15.2,51,13.9,13.5
 2002/11/03,17:45,15.5,51,16.2,13.5
 2002/11/03,18:00,15.5,52,15.8,13.5
 2002/11/03,18:15,15.5,52,18.3,13.6
 2002/11/03,18:30,15.6,52,15.7,13.6
 2002/11/03,18:45,15.7,53,14.8,13.6
 2002/11/03,19:00,16,53,14.3,13.7
 2002/11/03,19:15,15.9,51,13.8,13.7
 2002/11/03,19:30,15.8,50,13.8,13.7
 2002/11/03,19:45,15.8,50,13.7,13.8
 2002/11/03,20:00,17.2,49,14.1,13.8
 2002/11/03,20:15,20.9,40,14.1,13.8
 2002/11/03,20:30,20.4,41,13.9,13.9
 2002/11/03,20:45,19.7,42,14.2,14
 2002/11/03,21:00,18.8,46,14.5,14
 2002/11/03,21:15,17.2,50,13.6,14
 2002/11/03,21:30,16.7,51,13.1,14
 2002/11/03,21:45,16.3,52,12.8,14.1
 2002/11/03,22:00,16,51,12.4,14.1
 2002/11/03,22:15,15.7,52,12.3,14.1
 2002/11/03,22:30,15.7,51,12.2,14.1
 2002/11/03,22:45,15.4,51,12,14.1
 2002/11/03,23:00,15.3,52,12.1,13.5
 2002/11/03,23:15,15.1,52,11.9,13.5
 2002/11/03,23:30,14.9,52,12,13.5
 2002/11/03,23:45,14.7,52,11.8,13.5
 2002/11/04, 0:00,14.6,51,11.6,13.5
 2002/11/04, 0:15,14.5,51,11.3,13.5
 2002/11/04, 0:30,14.3,52,11.4,13.6
 2002/11/04, 0:45,14.2,52,11.2,13.6
 2002/11/04, 1:00,14,52,11.2,13.6
 2002/11/04, 1:15,14,52,10.9,13.6
 2002/11/04, 1:30,13.8,53,11,13.6
 2002/11/04, 1:45,13.8,53,10.9,13.6
 2002/11/04, 2:00,13.7,52,10.6,13.6
 2002/11/04, 2:15,13.6,52,10.6,13.6
 2002/11/04, 2:30,13.5,52,10.6,13.6
 2002/11/04, 2:45,13.5,52,10.5,13.6
 2002/11/04, 3:00,13.4,51,10.2,13.7
 2002/11/04, 3:15,13.1,50,10,13.7
 2002/11/04, 3:30,13.1,49,9.8,13.7
 2002/11/04, 3:45,13,49,9.8,13.7
 2002/11/04, 4:00,13,48,9.6,13.7
 2002/11/04, 4:15,12.8,48,9.4,13.7
 2002/11/04, 4:30,12.7,48,9.4,13.7
 2002/11/04, 4:45,12.6,48,9.2,13.6
 2002/11/04, 5:00,12.5,48,9,13.6
 2002/11/04, 5:15,12.5,48,9,13.6
 2002/11/04, 5:30,12.4,48,8.9,13.6
 2002/11/04, 5:45,12.3,48,8.9,13.6
 2002/11/04, 6:00,12.3,48,8.8,13.6
 2002/11/04, 6:15,12.2,48,8.7,13.6
 2002/11/04, 6:30,12.1,49,8.5,13.6
 2002/11/04, 6:45,12.1,49,8.5,13.5
 2002/11/04, 7:00,12,49,8.4,13.5
 2002/11/04, 7:15,12.1,49,8.6,13.5
 2002/11/04, 7:30,12.3,49,8.6,13.5
 2002/11/04, 7:45,14.2,49,9.6,11.7
 2002/11/04, 8:00,16.8,44,9.7,11.6
 2002/11/04, 8:15,17.8,41,9.9,11.6
 2002/11/04, 8:30,17.1,44,9.9,11.6
 2002/11/04, 8:45,17.9,43,10.5,11.6
 2002/11/04, 9:00,19.8,39,10.9,11.7
 2002/11/04, 9:15,18,42,11.6,11.7
 2002/11/04, 9:30,16.7,40,11.4,11.7
 2002/11/04, 9:45,16.3,44,11.7,11.8
 2002/11/04,10:00,16.3,45,11.7,11.8
 2002/11/04,10:15,16,45,12.5,11.8
 2002/11/04,10:30,15.5,42,12.4,11.5
 2002/11/04,10:45,14.8,37,12.3,11.5
 2002/11/04,11:00,14.2,34,12.5,11.6
 2002/11/04,11:15,14.3,38,12.6,11.6
 2002/11/04,11:30,13.9,37,12.5,11.6
 2002/11/04,11:45,13.6,37,12.6,11.7
 2002/11/04,12:00,13.7,38,12.7,11.7
 2002/11/04,12:15,13.1,36,12.5,11.8
 2002/11/04,12:30,12.9,37,12.5,11.8
 2002/11/04,12:45,15.7,42,13,11.8
 2002/11/04,13:00,17.3,42,13.5,11.9
 2002/11/04,13:15,17.9,35,13.7,11.9
 2002/11/04,13:30,19.7,36,13.9,12
 2002/11/04,13:45,19.8,36,13.9,12
 2002/11/04,14:00,19,37,13.7,12.1
 2002/11/04,14:15,19.3,37,13.9,12.1
 2002/11/04,14:30,18.4,38,13.9,12.2
 2002/11/04,14:45,17.4,40,13.8,12.3
 2002/11/04,15:00,17.2,41,13.8,12.4
 2002/11/04,15:15,17.2,41,13.9,12.4
 2002/11/04,15:30,17,42,13.6,12.5
 2002/11/04,15:45,16.9,42,13.4,12.5
 2002/11/04,16:00,16.8,42,13.1,12.6
 2002/11/04,16:15,16.6,43,13.3,12.6
 2002/11/04,16:30,16.5,43,13.1,12.7
 2002/11/04,16:45,16.2,43,12.6,12.7
 2002/11/04,17:00,15.8,43,11.9,12.8
 2002/11/04,17:15,15.8,43,12.1,12.9
 2002/11/04,17:30,15.7,43,12.4,12.9
 2002/11/04,17:45,15.9,44,15.1,12.9
 2002/11/04,18:00,16,48,14.4,13
 2002/11/04,18:15,15.8,48,13.6,13
 2002/11/04,18:30,15.8,46,13.5,13.1
 2002/11/04,18:45,18,41,13.6,13.1
 2002/11/04,19:00,18.8,41,14.6,13.2
 2002/11/04,19:15,19.7,39,14,13.2
 2002/11/04,19:30,20.1,37,13.5,13.3
 2002/11/04,19:45,18.8,39,13.2,13.3
 2002/11/04,20:00,18.7,40,12.8,13.3
 2002/11/04,20:15,18.8,41,12.6,13.4
 2002/11/04,20:30,18.6,40,12.7,13.4
 2002/11/04,20:45,20,38,12.5,13.4
 2002/11/04,21:00,18.8,40,12.6,13.5
 2002/11/04,21:15,18.9,39,12.6,13.5
 2002/11/04,21:30,18.8,39,12.6,13.5
 2002/11/04,21:45,18.9,39,12.4,13.7
 2002/11/04,22:00,19,39,13.1,13.7
 2002/11/04,22:15,18.8,42,12.8,13.7
 2002/11/04,22:30,17,45,12.3,13.7
 2002/11/04,22:45,16.4,45,12.3,13.8
 2002/11/04,23:00,15.7,46,11.9,13.8
 2002/11/04,23:15,15.3,49,11.2,13.8
 2002/11/04,23:30,15,47,11.2,13.8
 2002/11/04,23:45,14.8,47,11.1,13.9
 2002/11/05, 0:00,14.6,48,10.8,13.9
 2002/11/05, 0:15,14.5,48,11.4,13.9
 2002/11/05, 0:30,14.3,49,10.5,13.1
 2002/11/05, 0:45,13.9,48,10.3,13.1
 2002/11/05, 1:00,13.8,48,10.2,13.1
 2002/11/05, 1:15,13.6,49,9.9,13.1
 2002/11/05, 1:30,13.4,49,9.8,13.1
 2002/11/05, 1:45,13.3,49,9.8,13.2
 2002/11/05, 2:00,13.3,49,9.6,13.2
 2002/11/05, 2:15,13.1,49,9.6,13.2
 2002/11/05, 2:30,12.9,50,9.6,13.2
 2002/11/05, 2:45,12.9,50,9.5,13.2
 2002/11/05, 3:00,12.8,49,9.3,11.9
 2002/11/05, 3:15,12.7,50,9,11.9
 2002/11/05, 3:30,12.6,50,9,11.9
 2002/11/05, 3:45,12.5,50,9,11.9
 2002/11/05, 4:00,12.5,50,9,12
 2002/11/05, 4:15,12.4,50,8.9,12
 2002/11/05, 4:30,12.2,50,9,12
 2002/11/05, 4:45,12.1,50,8.8,12
 2002/11/05, 5:00,12.2,50,8.8,12
 2002/11/05, 5:15,12.2,51,8.8,12
 2002/11/05, 5:30,12.2,50,8.8,12.1
 2002/11/05, 5:45,13.4,48,8.8,12.1
 2002/11/05, 6:00,14.4,46,8.7,12.1
 2002/11/05, 6:15,15.1,46,8.6,12.1
 2002/11/05, 6:30,16.1,46,9.3,10.9
 2002/11/05, 6:45,16.4,44,9.6,10.9
 2002/11/05, 7:00,17.3,41,10.1,10.9
 2002/11/05, 7:15,18,40,10.2,10.9
 2002/11/05, 7:30,18,42,10.6,11
 2002/11/05, 7:45,19.7,37,10.8,11
 2002/11/05, 8:00,17.7,41,11,11
 2002/11/05, 8:15,17.4,42,11,11.8
 2002/11/05, 8:30,17.4,42,10.7,11.8
 2002/11/05, 8:45,18.8,39,11,11.8
 2002/11/05, 9:00,19.9,36,11.6,11.8
 2002/11/05, 9:15,15.7,40,11.4,11.9
 2002/11/05, 9:30,15.2,45,11.3,11.9
 2002/11/05, 9:45,14.8,45,11.4,12
 2002/11/05,10:00,14.8,46,11.6,12
 2002/11/05,10:15,14.2,42,11.9,11.9
 2002/11/05,10:30,14.1,43,11.9,11.8
 2002/11/05,10:45,13.7,43,12,11.8
 2002/11/05,11:00,14.1,43,12.3,11.9
 2002/11/05,11:15,14.4,43,12.5,11.9
 2002/11/05,11:30,14.7,43,12.9,11.9
 2002/11/05,11:45,14.7,42,13.4,12
 2002/11/05,12:00,14.8,42,13.7,12
 2002/11/05,12:15,15.4,43,14,12.1
 2002/11/05,12:30,18.2,42,14.3,12.1
 2002/11/05,12:45,18.5,42,15,12.2
 2002/11/05,13:00,19.3,40,15.4,12.2
 2002/11/05,13:15,19.2,40,15.4,12.3
 2002/11/05,13:30,17.7,40,15.1,12.3
 2002/11/05,13:45,17.2,41,15.2,12.4
 2002/11/05,14:00,17,42,15.1,12.6
 2002/11/05,14:15,16.9,42,14.8,12.6
 2002/11/05,14:30,16.5,43,14.5,12.7
 2002/11/05,14:45,16.2,42,14.5,12.7
 2002/11/05,15:00,15.9,42,14.4,12.8
 2002/11/05,15:15,15.7,43,13.9,12.8
 2002/11/05,15:30,15.6,43,13.9,12.8
 2002/11/05,15:45,15.3,43,13.8,12.9
 2002/11/05,16:00,15.2,44,13.5,12.9
 2002/11/05,16:15,14.9,45,13.2,13
 2002/11/05,16:30,14.7,44,13,13
 2002/11/05,16:45,14.8,45,12.6,13.1
 2002/11/05,17:00,14.9,45,12.4,12.8
 2002/11/05,17:15,14.8,46,12.3,12.8
 2002/11/05,17:30,14.5,45,12,12.8
 2002/11/05,17:45,16.5,43,12.3,12.9
 2002/11/05,18:00,17.4,40,13.1,12.9
 2002/11/05,18:15,17.3,41,13.9,12.9
 2002/11/05,18:30,17.5,41,13.9,13
 2002/11/05,18:45,17.7,42,14.7,13
 2002/11/05,19:00,18.8,40,14.2,13.1
 2002/11/05,19:15,18.5,41,14.8,13.1
 2002/11/05,19:30,19,43,15.7,13.2
 2002/11/05,19:45,19.9,43,15.3,13.2
 2002/11/05,20:00,20,41,15.1,13.2
 2002/11/05,20:15,19.9,41,14.2,13.3
 2002/11/05,20:30,19.5,41,13.9,13.3
 2002/11/05,20:45,19.1,42,13.6,13.4
 2002/11/05,21:00,18.9,42,13.5,13.4
 2002/11/05,21:15,18.9,42,13.5,13.4
 2002/11/05,21:30,19.1,41,13.3,13.3
 2002/11/05,21:45,20,39,13.2,13.3
 2002/11/05,22:00,19.6,40,12.8,13.4
 2002/11/05,22:15,19.9,40,13.1,13.4
 2002/11/05,22:30,19.5,40,14.2,13.4
 2002/11/05,22:45,19.2,43,14.2,13.5
 2002/11/05,23:00,20.6,40,13.8,13.5
 2002/11/05,23:15,19.3,43,13.4,13.5
 2002/11/05,23:30,17.3,45,12.9,13.6
 2002/11/05,23:45,16.6,46,12.5,13.6
 2002/11/06, 0:00,16.3,47,12.2,13.8
 2002/11/06, 0:15,15.8,47,12,13.1
 2002/11/06, 0:30,15.4,48,11.7,13.1
 2002/11/06, 0:45,15.2,48,11.5,13.2
 2002/11/06, 1:00,14.9,48,11.3,13.2
 2002/11/06, 1:15,14.7,48,11.1,13.3
 2002/11/06, 1:30,14.5,48,11,13.3
 2002/11/06, 1:45,14.3,49,10.7,13.3
 2002/11/06, 2:00,14.1,49,10.6,13.4
 2002/11/06, 2:15,14,49,10.4,13.4
 2002/11/06, 2:30,13.9,49,10.4,13.4
 2002/11/06, 2:45,13.6,49,10.3,13.4
 2002/11/06, 3:00,13.6,49,10.2,13.4
 2002/11/06, 3:15,13.4,49,10.1,13.4
 2002/11/06, 3:30,13.3,49,10.1,13.5
 2002/11/06, 3:45,13.1,50,9.9,13.5
 2002/11/06, 4:00,13.1,49,9.8,13.5
 2002/11/06, 4:15,12.9,50,9.8,13.5
 2002/11/06, 4:30,12.9,50,9.7,13.5
 2002/11/06, 4:45,12.8,50,9.8,13.5
 2002/11/06, 5:00,12.8,50,9.7,13.5
 2002/11/06, 5:15,12.6,50,9.5,13.5
 2002/11/06, 5:30,12.7,50,9.6,13.5
 2002/11/06, 5:45,13.8,49,9.6,13.5
 2002/11/06, 6:00,14.6,48,9.6,13.5
 2002/11/06, 6:15,15.1,48,9.7,13.5
 2002/11/06, 6:30,15.6,49,10.6,11.9
 2002/11/06, 6:45,16.7,45,10.8,11.9
 2002/11/06, 7:00,16.4,46,10.6,11.9
 2002/11/06, 7:15,16.9,45,10.7,11.9
 2002/11/06, 7:30,18.1,42,11.1,12
 2002/11/06, 7:45,17.2,45,12.1,12
 2002/11/06, 8:00,17.4,44,11.8,12
 2002/11/06, 8:15,17.8,44,12,12.1
 2002/11/06, 8:30,18,44,12.4,12.1
 2002/11/06, 8:45,18.5,45,12.5,12.1
 2002/11/06, 9:00,18.7,44,12.8,12.2
 2002/11/06, 9:15,18.7,41,13.1,12.3
 2002/11/06, 9:30,19,42,13.4,12.3
 2002/11/06, 9:45,17.8,45,13.5,12.3
 2002/11/06,10:00,17.5,45,13.6,12.4
 2002/11/06,10:15,16.9,44,13.7,12.5
 2002/11/06,10:30,16.5,43,13.8,12.5
 2002/11/06,10:45,16.3,44,14.2,12.3
 2002/11/06,11:00,16.4,44,14.3,12.4
 2002/11/06,11:15,16.5,45,15.9,12.4
 2002/11/06,11:30,16.6,45,15.5,12.5
 2002/11/06,11:45,16.2,44,15.7,12.5
 2002/11/06,12:00,15.3,45,15.7,12.5
 2002/11/06,12:15,17.9,44,15.6,12.6
 2002/11/06,12:30,17.9,43,15.8,12.6
 2002/11/06,12:45,18.5,42,16,12.7
 2002/11/06,13:00,18.5,41,16.2,12.7
 2002/11/06,13:15,19.1,41,16.4,12.8
 2002/11/06,13:30,19.4,40,16.5,12.8
 2002/11/06,13:45,19.2,39,16.6,12.9
 2002/11/06,14:00,19.5,39,16.8,13
 2002/11/06,14:15,18.1,43,16.8,13
 2002/11/06,14:30,18,44,16.8,13.2
 2002/11/06,14:45,17.9,44,16.8,13.2
 2002/11/06,15:00,17.5,44,16.3,13.3
 2002/11/06,15:15,17.5,44,16.3,13.3
 2002/11/06,15:30,17.5,44,16.2,13.4
 2002/11/06,15:45,17.4,44,16.3,13.4
 2002/11/06,16:00,17.3,44,16.3,13.5
 2002/11/06,16:15,17.2,44,16.2,13.6
 2002/11/06,16:30,17.1,44,15.9,13.6
 2002/11/06,16:45,16.9,45,15.4,13.7
 2002/11/06,17:00,16.8,45,15.1,13.7
 2002/11/06,17:15,16.5,46,14.8,13.8
 2002/11/06,17:30,16.3,46,14.7,13.9
 2002/11/06,17:45,16.4,47,15.7,13.9
 2002/11/06,18:00,16.5,48,15.5,14
 2002/11/06,18:15,16.3,48,15.8,14
 2002/11/06,18:30,16.6,55,15.5,14.1
 2002/11/06,18:45,16.7,50,15.5,14.1
 2002/11/06,19:00,16.5,49,15.6,14.2
 2002/11/06,19:15,16.8,52,14.7,14.2
 2002/11/06,19:30,18.3,49,14.2,14.3
 2002/11/06,19:45,18.8,46,14,14.3
 2002/11/06,20:00,19.1,45,13.7,14.4
 2002/11/06,20:15,19.6,44,13.6,14.4
 2002/11/06,20:30,19.5,45,14,14.4
 2002/11/06,20:45,19.9,45,16,14.5
 2002/11/06,21:00,19.8,45,14.3,14.5
 2002/11/06,21:15,20.4,43,14,14.5
 2002/11/06,21:30,19.6,44,13.8,14.6
 2002/11/06,21:45,19.9,43,13.6,14.6
 2002/11/06,22:00,19.7,44,14.2,14.7
 2002/11/06,22:15,20.1,44,13.9,14.7
 2002/11/06,22:30,20.4,43,13.6,14.7
 2002/11/06,22:45,20,46,13.5,14.8
 2002/11/06,23:00,20,46,13.5,14.8
 2002/11/06,23:15,20,46,13.6,14.8
 2002/11/06,23:30,17.8,49,13.7,14.9
 2002/11/06,23:45,17.2,50,13.2,14.2
 2002/11/07, 0:00,16.7,51,12.9,14.2
 2002/11/07, 0:15,16.4,51,12.6,14.3
 2002/11/07, 0:30,16.2,50,12.5,13.6
 2002/11/07, 0:45,16,50,12.4,13.5
 2002/11/07, 1:00,15.7,51,12.2,13.6
 2002/11/07, 1:15,15.5,51,12,13.6
 2002/11/07, 1:30,15.3,51,12,13.6
 2002/11/07, 1:45,15.1,51,11.7,13.7
 2002/11/07, 2:00,14.8,51,11.4,13.7
 2002/11/07, 2:15,14.8,51,11.3,13.7
 2002/11/07, 2:30,14.6,51,11.1,13.7
 2002/11/07, 2:45,14.4,51,11,13.8
 2002/11/07, 3:00,14.2,51,10.8,13.8
 2002/11/07, 3:15,14.1,51,10.7,13.8
 2002/11/07, 3:30,14,52,10.6,13.8
 2002/11/07, 3:45,13.9,52,10.5,13.8
 2002/11/07, 4:00,13.8,52,10.4,13.9
 2002/11/07, 4:15,13.7,52,10.3,13.9
 2002/11/07, 4:30,13.6,52,10.1,13.9
 2002/11/07, 4:45,13.4,52,10.1,13.9
 2002/11/07, 5:00,13.4,52,10,13.9
 2002/11/07, 5:15,13.4,52,9.8,13.9
 2002/11/07, 5:30,13.3,52,9.8,13.9
 2002/11/07, 5:45,14.7,51,9.8,13.5
 2002/11/07, 6:00,15.5,49,9.9,12.3
 2002/11/07, 6:15,16.3,48,10,12.4
 2002/11/07, 6:30,16.8,48,10.2,12.4
 2002/11/07, 6:45,18.6,43,10.9,12.4
 2002/11/07, 7:00,17.7,46,10.5,12.4
 2002/11/07, 7:15,18.2,45,10.7,12.5
 2002/11/07, 7:30,18,45,11.8,12.5
 2002/11/07, 7:45,19.6,43,12.2,12.5
 2002/11/07, 8:00,18.8,45,12.5,12.5
 2002/11/07, 8:15,19.1,44,12.8,12.5
 2002/11/07, 8:30,19.4,44,13.1,12.5
 2002/11/07, 8:45,17.3,47,13.5,12.6
 2002/11/07, 9:00,16.3,46,13.4,12.6
 2002/11/07, 9:15,16.5,47,14.5,12.6
 2002/11/07, 9:30,16.4,47,14.1,12.5
 2002/11/07, 9:45,16.4,47,14.1,12.6
 2002/11/07,10:00,16.4,47,14,12.6
 2002/11/07,10:15,16.3,42,14.2,12.7
 2002/11/07,10:30,15.9,40,14.4,12.7
 2002/11/07,10:45,15.8,40,14.5,12.8
 2002/11/07,11:00,16.2,42,14.7,12.8
 2002/11/07,11:15,15.8,41,14.8,12.9
 2002/11/07,11:30,16.2,40,15.2,13
 2002/11/07,11:45,16,40,15.7,13
 2002/11/07,12:00,16.3,41,16.1,13.1
 2002/11/07,12:15,16.2,39,16.4,13.2
 2002/11/07,12:30,16.5,41,16.2,13.2
 2002/11/07,12:45,16.8,41,16.2,13.3
 2002/11/07,13:00,16.8,40,16.6,13.4
 2002/11/07,13:15,16.9,40,16,13.4
 2002/11/07,13:30,16.8,40,16.1,13.5
 2002/11/07,13:45,16.9,39,16,13.6
 2002/11/07,14:00,17.3,42,16.5,13.7
 2002/11/07,14:15,17.3,44,16.5,13.4
 2002/11/07,14:30,17.3,45,16.4,13.4
 2002/11/07,14:45,17.3,46,16.4,13.5
 2002/11/07,15:00,17.3,46,16.4,13.5
 2002/11/07,15:15,17.2,47,16.5,13.6
 2002/11/07,15:30,17.4,47,16.4,13.6
 2002/11/07,15:45,17.5,48,16.4,13.7
 2002/11/07,16:00,17.7,51,16.3,13.7
 2002/11/07,16:15,17.7,49,16.3,13.8
 2002/11/07,16:30,17.5,49,16.1,13.8
 2002/11/07,16:45,17.3,50,16.1,13.9
 2002/11/07,17:00,17.4,50,15.8,13.9
 2002/11/07,17:15,17.5,51,15.7,14
 2002/11/07,17:30,17.4,51,15.6,14
 2002/11/07,17:45,17.2,51,17.1,14
 2002/11/07,18:00,17.2,51,16.7,14
 2002/11/07,18:15,17.2,52,17.4,14.1
 2002/11/07,18:30,17.4,53,17.2,14.1
 2002/11/07,18:45,17.5,54,20.5,14.2
 2002/11/07,19:00,17.7,57,18,14.2
 2002/11/07,19:15,17.9,57,17.5,14.3
 2002/11/07,19:30,17.8,56,17.1,14.3
 2002/11/07,19:45,17.6,54,17.1,14.4
 2002/11/07,20:00,17.7,56,16.9,14.4
 2002/11/07,20:15,17.5,55,16.9,14.4
 2002/11/07,20:30,17.4,54,16.6,14.5